Air Resources Laboratory banner image
Air Resources Laboratory web site National Oceanic and Atmospheric Administration (NOAA)

nc roundup


Office: RAH

ASUS42 KRAH 170510
RWRRAH
NORTH CAROLINA WEATHER ROUNDUP
NATIONAL WEATHER SERVICE RALEIGH NC
100 AM EDT WED AUG 17 2022

NOTE: "FAIR" INDICATES FEW OR NO CLOUDS BELOW 12,000 FEET WITH NO
SIGNIFICANT WEATHER AND/OR OBSTRUCTIONS TO VISIBILITY.

NCZ001-053-055-056-065-067-170600-
WESTERN NORTH CAROLINA

CITY           SKY/WX    TMP DP  RH WIND       PRES   REMARKS
ASHEVILLE      CLOUDY    64  63  96 CALM      30.05S
JEFFERSON      DRIZZLE   59  58  98 CALM      30.10S
MORGANTON      CLOUDY    69  68  96 CALM      30.06S FOG
HICKORY        CLOUDY    68  66  93 NE3       30.01F
WILKESBORO     CLOUDY    64  64 100 CALM      30.08F
RUTHERFORDTON  CLOUDY    68  68 100 CALM      30.02F
MOUNT AIRY     CLOUDY    66  61  84 CALM      30.05F
BOONE          CLOUDY    60  60 100 SE3       30.10S
$$

NCZ021-022-025-041-071-084-088-170600-
CENTRAL NORTH CAROLINA

CITY           SKY/WX    TMP DP  RH WIND       PRES   REMARKS
CHARLOTTE      CLOUDY    69  65  86 N7        29.98F
GREENSBORO     MOCLDY    66  63  90 NE7       30.00F
WINSTON-SALEM  PTCLDY    66  62  87 N5        30.02F
RALEIGH-DURHAM MOCLDY    71  67  87 N5        29.98F
FORT BRAGG     CLOUDY    71  68  88 CALM      29.93S
FAYETTEVILLE   CLOUDY    72  68  87 NE7       29.94S
BURLINGTON     MOCLDY    68  64  87 N5        29.99F
ROXBORO        PTCLDY    64  63  94 NE7       30.02F
HENDERSON      MOCLDY    64  64  99 NE7       30.01S
LOUISBURG      PTCLDY    66  64  94 CALM      30.00F FOG
LAURINBURG     CLOUDY    73  67  81 N6        29.94F
$$

NCZ011-015-027-028-043-044-047-080-103-170600-
NORTHEASTERN NORTH CAROLINA

CITY           SKY/WX    TMP DP  RH WIND       PRES   REMARKS
ROCKY MT-WILSO CLOUDY    71  67  87 N5        29.97S
GREENVILLE     CLOUDY    70  70 100 N6        29.94F
WASHINGTON     CLOUDY    69  65  86 CALM      29.95S
ELIZABETH CITY MOCLDY    71  67  87 N8        29.94S
MANTEO         CLOUDY    74  65  72 NE10      29.93S
CAPE HATTERAS  CLOUDY    74  68  81 E9        29.91R
$$

NCZ078-087-090-091-093-098-101-170600-
SOUTHEASTERN NORTH CAROLINA

CITY           SKY/WX    TMP DP  RH WIND       PRES   REMARKS
GOLDSBORO      PTCLDY    71  59  66 N5        29.92F
KINSTON        CLOUDY    71  68  92 N5        29.95F
KENANSVILLE    CLOUDY    70  68  94 NE3       29.94S
NEW BERN       CLOUDY    71  69  93 NE7       29.94S
CHERRY POINT   NOT AVBL
BEAUFORT       CLOUDY    74  70  87 N5        29.90S
JACKSONVILLE   CLOUDY    71  69  93 N7        29.92R
WILMINGTON     CLOUDY    74  71  91 N8        29.91R
$$





Office: AKQ ASUS41 KAKQ 170511 RWRAKQ REGIONAL WEATHER ROUNDUP NATIONAL WEATHER SERVICE WAKEFIELD VA 100 AM EDT WED AUG 17 2022 Note: "fair" indicates few or no clouds below 12,000 feet with no significant weather and/or obstructions to visibility. * = Denotes station may not report precipitation (e.g., rain,snow,etc.), thunder or fog. VAZ042-051-052>054-056-170600- NORTHERN VIRGINIA CITY SKY/WX TMP DP RH WIND PRES REMARKS WASH NATIONAL PTCLDY 72 61 68 CALM 30.01S DULLES PTCLDY 61 57 87 CALM 30.02S FORT BELVOIR PTCLDY 61 60 95 CALM 29.99F QUANTICO PTCLDY 66 62 87 W7 30.01F FOG FREDERICKSBRG* PTCLDY 64 63 96 CALM 30.00S STAFFORD* PTCLDY 64 60 87 CALM 30.05S WARRENTON PTCLDY 59 57 91 CALM 30.02R CULPEPER* PTCLDY 63 61 94 CALM 30.04R MANASSAS* PTCLDY 60 60 100 CALM 30.02F LEESBURG* PTCLDY 61 59 94 CALM 30.04S WINCHESTER PTCLDY 59 55 88 CALM 30.03R FRONT ROYAL* FAIR 61 61 100 CALM 30.03S LURAY* FAIR 61 61 100 CALM 30.05S $$ VAZ048-049-060>072-079>083-170600- CENTRAL AND SOUTH CENTRAL VIRGINIA CITY SKY/WX TMP DP RH WIND PRES REMARKS RICHMOND MOCLDY 68 63 84 CALM 30.00S CHESTERFIELD* FAIR 64 64 100 NW3 30.01S PETERSBURG* MOCLDY 64 62 95 CALM 30.01R HANOVER PTCLDY 63 61 93 CALM 30.02R TAPPAHANNOCK* PTCLDY 62 62 100 CALM 30.01S QUINTON* MOCLDY 64 64 97 CALM 29.99S CHARLOTTSVILLE NOT AVBL GORDONSVILLE* NOT AVBL ORANGE* CLOUDY 61 61 100 CALM 30.04S LOUISA* PTCLDY 59 N/A N/A N3 30.02S BUMPASS* CLOUDY 63 61 92 CALM 30.02S FARMVILLE* CLOUDY 65 64 98 CALM 30.01S CREWE* MOCLDY 59 56 91 CALM 30.01S FORT PICKETT* FAIR 63 60 91 NE6 30.01S CHASE CITY* FAIR 65 64 98 CALM 30.01S CLARKSVILLE* CLOUDY N/A N/A N/A CALM 30.00S SOUTH HILL* NOT AVBL LAWRENCEVILLE* FAIR 68 66 93 CALM 30.00S EMPORIA* PTCLDY 66 64 92 NE3 30.00S $$ VAZ088>098-170600- SOUTHEAST VIRGINIA CITY SKY/WX TMP DP RH WIND PRES REMARKS NORFOLK PTCLDY 72 67 84 NE13 29.96S VIRGINIA BEACH PTCLDY 70 67 90 N8 29.95S NORFOLK NAVAL PTCLDY 72 66 81 NE9 29.98S WEST POINT* CLEAR 65 64 97 CALM 30.00S SALUDA* N/A N/A N/A N/A MISG N/A NEWPORT NEWS CLOUDY 70 65 84 NE5 29.97F LANGLEY AFB NOT AVBL FORT EUSTIS MOCLDY 70 65 84 CALM 29.95F WILLIAMSBURG* NOT AVBL HR EXEC AP* FAIR 63 63 100 CALM 29.97F FRANKLIN* PTCLDY 66 65 96 CALM 29.98S US460-WAKEFLD PTCLDY 65 63 93 CALM 29.98F $$ VAZ020-022-025-037-045-170600- WEST CENTRAL AND SOUTHWEST VIRGINIA CITY SKY/WX TMP DP RH WIND PRES REMARKS STAUNTON* CLOUDY 60 60 99 CALM 30.08R WAYNESBORO* CLOUDY 61 61 99 MISG 30.06F HOT SPRINGS VA CLOUDY 58 58 100 E7 30.13S LYNCHBURG CLOUDY 67 60 78 N3 30.03S DANVILLE CLOUDY 65 61 87 CALM 30.01S SOUTH BOSTON* CLOUDY 64 62 95 CALM 30.01S MARTINSVILLE LGT RAIN 64 64 100 CALM 30.05F ROANOKE CLOUDY 66 60 81 N6 30.06S BLACKSBURG CLOUDY 62 62 100 CALM 30.11R DUBLIN* CLOUDY 61 61 100 CALM 30.09S MARION* DRIZZLE 60 60 99 NE6 30.09F HILLSVILLE* NOT AVBL RICHLANDS* CLOUDY 61 58 89 SE5 30.06F WISE* CLEAR 61 59 94 CALM 30.07F ABINGDON* NOT AVBL $$ MDZ021>025-VAZ099-100-170600- SOUTHERN MARYLAND AND THE DELMARVA PENINSULA CITY SKY/WX TMP DP RH WIND PRES REMARKS PATUXENT RIVER PTCLDY 71 61 70 E7 30.00S BAY BRIDGE APT NOT AVBL LEONARDTOWN PTCLDY 64 63 94 CALM 30.02S DOVER CLEAR 65 60 85 CALM 29.99R GEORGETOWN CLEAR 65 62 90 CALM 29.99S EASTON CLEAR 64 62 96 CALM 30.05R CAMBRIDGE NOT AVBL SALISBURY CLEAR 65 61 87 CALM 29.99S TANGIER FAIR 72 65 79 NE9 29.98S OCEAN CITY CLEAR 64 63 96 N6 29.98S WALLOPS ISLAND CLEAR 66 62 87 N7 29.97F ACCOMACK* NOT AVBL $$ NCZ012>017-030>032-170600- NORTH CENTRAL AND EASTERN NORTH CAROLINA CITY SKY/WX TMP DP RH WIND PRES REMARKS ROANOKE RAPIDS FAIR 64 64 100 CALM 29.98F RALEIGH MOCLDY 71 67 87 N5 29.98F ELIZABETH CITY MOCLDY 71 67 87 N8 29.94S AHOSKIE* MOCLDY 66 66 100 CALM 29.97F EDENTON* MOCLDY 70 70 100 N6 29.96S CURRITUCK* MOCLDY 72 68 88 N7 29.94F KILL DEVIL HLS CLOUDY 74 65 74 N5 29.91S MANTEO MOCLDY 74 65 72 NE10 29.93S CAPE HATTERAS CLOUDY 74 68 81 E9 29.91R TARBORO* CLOUDY 69 67 93 N3 29.96F GOLDSBORO PTCLDY 71 59 66 N5 29.92F WASHINGTON CLOUDY 69 65 86 CALM 29.95S GREENVILLE CLOUDY 70 70 100 N6 29.94F NEW BERN CLOUDY 71 69 93 NE7 29.94S WILMINGTON CLOUDY 74 71 91 N8 29.91R $$ VAZ048-170600- ELSEWHERE CITY SKY/WX TMP DP RH WIND PRES REMARKS HARRISBURG PA MOCLDY 69 58 67 CALM 30.01S BALTIMORE PTCLDY 68 61 78 CALM 30.00S ANNAPOLIS PTCLDY 70 65 84 CALM 30.00S ANDREWS AFB PTCLDY 63 60 90 CALM 29.99S PHILADELPHIA CLEAR 70 60 70 CALM 30.01S HENDERSON NC MOCLDY 64 64 99 NE7 30.01S GREENSBORO MOCLDY 66 63 90 NE7 30.00F ROCKY MOUNT CLOUDY 71 67 87 N5 29.97S $$ VAZ100-170600- MARINE STATION/POSITION TIME TEMP WIND PRES WAVE SWELL AIR SEA DIR/SP/G HT/PER HT/PER (UTC) (F) (DEG/KT/KT) (MB) (FT/S) (FT/S) CAPE MAY NJ 0430 67 71 30/ 2/ 3 1015.3S LEWES DE 0430 70 71 30/ 6/ 7 1015.5F 15NM E FENWICK I 0450 73 60/ 16/ 17 1014.9S 5/ 8 3/ 8 OCEAN-CITY-INLET 0430 71 70 70/ 3/ 5 1015.6R 44089 WALLOPS IS 0456 69 N/A 4/ 8 WACHAPREAGUE VA 0430 67 77 340/ 4/ 6 1014.1F THOMAS POINT MD 0500 73 100/ 7/ 7 1017.0R GOOSES REEF MD 0442 70 100/ 10/ 14 1017.0R COVE POINT MD 0430 72 70/ 3/ 6 1016.3R SOLOMONS ISLAND 0430 72 81 60/ 6/ 8 1014.5R BISHOPS HEAD MD 0430 71 78 50/ 9/ 10 1015.9R PINEY POINT MD 0430 50/ 3/ 4 N/A POTOMAC MD 0442 71 81 70/ 10/ 14 N/A CAMBRIDGE MD 0430 71 80 90/ 7/ 9 1015.9R LEWISETTA VA 0430 74 78 70/ 10/ 12 1015.7R RAPPAHANNOCK LGT 0430 40/ 12/ 14 1015.3S STINGRAY PT 0442 72 80 80/ 10/ 14 N/A YORK RVR RNG VA 0430 74 50/ 12/ 13 1015.0R YORKTOWN VA 0430 74 79 50/ 10/ 12 1014.7S JAMESTOWN VA 0442 71 30/ 4/ 4 N/A 0 DOMINION TERM VA 0430 72 30/ 4/ 6 1015.2S KIPTOPEKE VA 0430 76 30/ 5/ 5 N/A CHES BAY BRIDGE 0430 72 40/ 9/ 11 1013.9S CAPE HENRY VA 0430 72 20/ 10/ 12 1015.0R WILLOUBY STN VA 0430 73 40/ 10/ 12 1015.1R S CRANEY ISL VA 0430 73 40/ 8/ 12 1014.6R CAPE HENRY BUOY 0426 73 N/A 4/ 7 1ST LANDING BUOY 0442 70 10/ 10/ 14 1015.5S 64NM E OF VA BCH 0450 30/ 12/ 16 1012.3S DUCK PIER NC 0430 75 74 30/ 14/ 18 1013.4S 44100 DUCK FRF 0426 78 N/A 4/ 5 44056 DUCK FRF 0426 74 N/A 4/ 5 OREGON INLET NC 0430 75 81 50/ 6/ 10 1013.0R HATTERAS NC 0430 77 80 40/ 11/ 14 1013.0F DIAMOND SHLS NC 0450 85 10/ 12/ 17 1011.8R CAPE LOOKOUT NC 0400 73 20/ 9/ 11 1012.7S $$ ASUS41 KAKQ 170515 RWRAKQ REGIONAL WEATHER ROUNDUP NATIONAL WEATHER SERVICE WAKEFIELD VA 100 AM EDT WED AUG 17 2022 Note: "fair" indicates few or no clouds below 12,000 feet with no significant weather and/or obstructions to visibility. * = Denotes station may not report precipitation (e.g., rain,snow,etc.), thunder or fog. VAZ042-051-052>054-056-170600- NORTHERN VIRGINIA CITY SKY/WX TMP DP RH WIND PRES REMARKS WASH NATIONAL PTCLDY 72 61 68 CALM 30.01S DULLES PTCLDY 61 57 87 CALM 30.02S FORT BELVOIR PTCLDY 61 60 95 CALM 29.99F QUANTICO PTCLDY 66 62 87 W7 30.01F FOG FREDERICKSBRG* PTCLDY 64 63 96 CALM 30.00S STAFFORD* CLEAR 64 60 87 CALM 30.05S WARRENTON CLEAR 59 57 91 CALM 30.02R CULPEPER* CLEAR 63 61 94 CALM 30.04R MANASSAS* PTCLDY 60 60 100 CALM 30.02F LEESBURG* CLEAR 61 59 94 CALM 30.04S WINCHESTER CLEAR 59 55 88 CALM 30.03R FRONT ROYAL* FAIR 61 61 100 CALM 30.03S LURAY* FAIR 61 61 100 CALM 30.05S $$ VAZ048-049-060>072-079>083-170600- CENTRAL AND SOUTH CENTRAL VIRGINIA CITY SKY/WX TMP DP RH WIND PRES REMARKS RICHMOND MOCLDY 68 63 84 CALM 30.00S CHESTERFIELD* FAIR 64 64 100 NW3 30.01S PETERSBURG* MOCLDY 64 62 95 CALM 30.01R HANOVER PTCLDY 63 61 93 CALM 30.02R TAPPAHANNOCK* PTCLDY 62 62 100 CALM 30.01S QUINTON* MOCLDY 64 64 97 CALM 29.99S CHARLOTTSVILLE NOT AVBL GORDONSVILLE* NOT AVBL ORANGE* CLOUDY 61 61 100 CALM 30.04S LOUISA* PTCLDY 59 N/A N/A N3 30.02S BUMPASS* CLOUDY 63 61 92 CALM 30.02S FARMVILLE* CLOUDY 65 64 98 CALM 30.01S CREWE* MOCLDY 59 56 91 CALM 30.01S FORT PICKETT* FAIR 63 60 91 NE6 30.01S CHASE CITY* FAIR 65 64 98 CALM 30.01S CLARKSVILLE* CLOUDY N/A N/A N/A CALM 30.00S SOUTH HILL* NOT AVBL LAWRENCEVILLE* FAIR 68 66 93 CALM 30.00S EMPORIA* PTCLDY 66 64 92 NE3 30.00S $$ VAZ088>098-170600- SOUTHEAST VIRGINIA CITY SKY/WX TMP DP RH WIND PRES REMARKS NORFOLK CLEAR 72 67 84 NE13 29.96S VIRGINIA BEACH PTCLDY 70 67 90 N8 29.95S NORFOLK NAVAL PTCLDY 72 66 81 NE9 29.98S WEST POINT* CLEAR 65 64 97 CALM 30.00S SALUDA* N/A N/A N/A N/A MISG N/A NEWPORT NEWS CLOUDY 70 65 84 NE5 29.97F LANGLEY AFB NOT AVBL FORT EUSTIS MOCLDY 70 65 84 CALM 29.95F WILLIAMSBURG* NOT AVBL HR EXEC AP* FAIR 63 63 100 CALM 29.97F FRANKLIN* PTCLDY 66 65 96 CALM 29.98S US460-WAKEFLD PTCLDY 65 63 93 CALM 29.98F $$ VAZ020-022-025-037-045-170600- WEST CENTRAL AND SOUTHWEST VIRGINIA CITY SKY/WX TMP DP RH WIND PRES REMARKS STAUNTON* CLOUDY 60 60 99 CALM 30.08R WAYNESBORO* CLOUDY 61 61 99 MISG 30.06F HOT SPRINGS VA CLOUDY 58 58 100 E7 30.13S LYNCHBURG CLOUDY 67 60 78 N3 30.03S DANVILLE CLOUDY 65 61 87 CALM 30.01S BROOKNEAL* NOT AVBL SOUTH BOSTON* CLOUDY 64 62 95 CALM 30.01S MARTINSVILLE LGT RAIN 64 64 100 CALM 30.05F ROANOKE CLOUDY 66 60 81 N6 30.06S BLACKSBURG CLOUDY 62 62 100 CALM 30.11R DUBLIN* CLOUDY 61 61 100 CALM 30.09S MARION* DRIZZLE 60 60 99 NE6 30.09F HILLSVILLE* NOT AVBL RICHLANDS* CLOUDY 61 58 89 SE5 30.06F WISE* CLEAR 61 59 94 CALM 30.07F ABINGDON* NOT AVBL $$ MDZ021>025-VAZ099-100-170600- SOUTHERN MARYLAND AND THE DELMARVA PENINSULA CITY SKY/WX TMP DP RH WIND PRES REMARKS PATUXENT RIVER CLEAR 71 61 70 E7 30.00S BAY BRIDGE APT NOT AVBL LEONARDTOWN CLEAR 64 63 94 CALM 30.02S DOVER CLEAR 65 60 85 CALM 29.99R GEORGETOWN CLEAR 65 62 90 CALM 29.99S EASTON CLEAR 64 62 96 CALM 30.05R CAMBRIDGE NOT AVBL SALISBURY CLEAR 65 61 87 CALM 29.99S TANGIER FAIR 72 65 79 NE9 29.98S OCEAN CITY CLEAR 64 63 96 N6 29.98S WALLOPS ISLAND CLEAR 66 62 87 N7 29.97F ACCOMACK* NOT AVBL $$ NCZ012>017-030>032-170600- NORTH CENTRAL AND EASTERN NORTH CAROLINA CITY SKY/WX TMP DP RH WIND PRES REMARKS ROANOKE RAPIDS FAIR 64 64 100 CALM 29.98F RALEIGH MOCLDY 71 67 87 N5 29.98F ELIZABETH CITY MOCLDY 71 67 87 N8 29.94S AHOSKIE* PTCLDY 66 66 100 CALM 29.97F EDENTON* MOCLDY 70 70 100 N6 29.96S CURRITUCK* MOCLDY 72 68 88 N7 29.94F KILL DEVIL HLS CLOUDY 74 65 74 N5 29.91S MANTEO MOCLDY 74 65 72 NE10 29.93S CAPE HATTERAS CLOUDY 74 68 81 E9 29.91R TARBORO* CLOUDY 69 67 93 N3 29.96F GOLDSBORO PTCLDY 71 59 66 N5 29.92F WASHINGTON CLOUDY 69 65 86 CALM 29.95S GREENVILLE CLOUDY 70 70 100 N6 29.94F NEW BERN CLOUDY 71 69 93 NE7 29.94S WILMINGTON CLOUDY 74 71 91 N8 29.91R $$ VAZ048-170600- ELSEWHERE CITY SKY/WX TMP DP RH WIND PRES REMARKS HARRISBURG PA MOCLDY 69 58 67 CALM 30.01S BALTIMORE PTCLDY 68 61 78 CALM 30.00S ANNAPOLIS CLEAR 70 65 84 CALM 30.00S ANDREWS AFB PTCLDY 63 60 90 CALM 29.99S PHILADELPHIA CLEAR 70 60 70 CALM 30.01S HENDERSON NC MOCLDY 64 64 99 NE7 30.01S GREENSBORO MOCLDY 66 63 90 NE7 30.00F ROCKY MOUNT CLOUDY 71 67 87 N5 29.97S $$ VAZ100-170600- MARINE STATION/POSITION TIME TEMP WIND PRES WAVE SWELL AIR SEA DIR/SP/G HT/PER HT/PER (UTC) (F) (DEG/KT/KT) (MB) (FT/S) (FT/S) CAPE MAY NJ 0430 67 71 30/ 2/ 3 1015.3S LEWES DE 0430 70 71 30/ 6/ 7 1015.5F 15NM E FENWICK I 0450 73 60/ 16/ 17 1014.9S 5/ 8 3/ 8 OCEAN-CITY-INLET 0430 71 70 70/ 3/ 5 1015.6R 44089 WALLOPS IS 0456 69 N/A 4/ 8 WACHAPREAGUE VA 0430 67 77 340/ 4/ 6 1014.1F THOMAS POINT MD 0500 73 100/ 7/ 7 1017.0R GOOSES REEF MD 0442 70 100/ 10/ 14 1017.0R COVE POINT MD 0430 72 70/ 3/ 6 1016.3R SOLOMONS ISLAND 0430 72 81 60/ 6/ 8 1014.5R BISHOPS HEAD MD 0430 71 78 50/ 9/ 10 1015.9R PINEY POINT MD 0430 50/ 3/ 4 N/A POTOMAC MD 0442 71 81 70/ 10/ 14 N/A CAMBRIDGE MD 0430 71 80 90/ 7/ 9 1015.9R LEWISETTA VA 0430 74 78 70/ 10/ 12 1015.7R RAPPAHANNOCK LGT 0430 40/ 12/ 14 1015.3S STINGRAY PT 0442 72 80 80/ 10/ 14 N/A YORK RVR RNG VA 0430 74 50/ 12/ 13 1015.0R YORKTOWN VA 0430 74 79 50/ 10/ 12 1014.7S JAMESTOWN VA 0442 71 30/ 4/ 4 N/A 0 DOMINION TERM VA 0430 72 30/ 4/ 6 1015.2S KIPTOPEKE VA 0430 76 30/ 5/ 5 N/A CHES BAY BRIDGE 0430 72 40/ 9/ 11 1013.9S CAPE HENRY VA 0430 72 20/ 10/ 12 1015.0R WILLOUBY STN VA 0430 73 40/ 10/ 12 1015.1R S CRANEY ISL VA 0430 73 40/ 8/ 12 1014.6R CAPE HENRY BUOY 0426 73 N/A 4/ 7 1ST LANDING BUOY 0442 70 10/ 10/ 14 1015.5S 64NM E OF VA BCH 0450 30/ 12/ 16 1012.3S DUCK PIER NC 0430 75 74 30/ 14/ 18 1013.4S 44100 DUCK FRF 0456 78 N/A 4/ 5 44056 DUCK FRF 0426 74 N/A 4/ 5 OREGON INLET NC 0430 75 81 50/ 6/ 10 1013.0R HATTERAS NC 0430 77 80 40/ 11/ 14 1013.0F DIAMOND SHLS NC 0450 85 10/ 12/ 17 1011.8R CAPE LOOKOUT NC 0400 73 20/